This is the latest recevied weather packets stored in our database for station/object WZ8H. If no packets are shown the sender has not sent any weather packets the latest 1 day(s).
| Time | Temp. | Humidity | Pressure | Rain* | Wind** | Luminosity | Snow |
|---|---|---|---|---|---|---|---|
| 1777996194 | 17.22° C | 78% | 1006.2 hPa | 0 mm | 2.68 m/s, 232° | 199 W/m² | - |
| 1777995874 | 17.22° C | 78% | 1006.3 hPa | 0 mm | 3.13 m/s, 232° | 206 W/m² | - |
| 1777995551 | 17.22° C | 78% | 1006.3 hPa | 0 mm | 3.13 m/s, 250° | 149 W/m² | - |
| 1777995215 | 17.22° C | 78% | 1006.3 hPa | 0 mm | 2.68 m/s, 250° | 155 W/m² | - |
| 1777994893 | 17.22° C | 78% | 1006.2 hPa | 0 mm | 2.68 m/s, 277° | 176 W/m² | - |
| 1777994594 | 17.22° C | 77% | 1006.1 hPa | 0 mm | 2.24 m/s, 262° | 190 W/m² | - |
| 1777994289 | 17.78° C | 77% | 1006 hPa | 0 mm | 2.24 m/s, 200° | 190 W/m² | - |
| 1777993979 | 17.78° C | 77% | 1005.8 hPa | 0 mm | 2.68 m/s, 290° | 188 W/m² | - |
| 1777993683 | 17.78° C | 77% | 1005.9 hPa | 0 mm | 2.68 m/s, 261° | 153 W/m² | - |
| 1777993357 | 17.78° C | 77% | 1005.6 hPa | 0 mm | 2.24 m/s, 237° | 330 W/m² | - |
| 1777993046 | 17.78° C | 76% | 1005.4 hPa | 0 mm | 2.68 m/s, 224° | 411 W/m² | - |
| 1777992735 | 17.78° C | 76% | 1005.2 hPa | 0 mm | 2.68 m/s, 283° | 383 W/m² | - |
| 1777992411 | 17.78° C | 76% | 1005 hPa | 0 mm | 2.24 m/s, 260° | 513 W/m² | - |
| 1777992087 | 17.78° C | 76% | 1004.7 hPa | 0 mm | 2.24 m/s, 290° | 490 W/m² | - |
| 1777991767 | 17.78° C | 76% | 1004.3 hPa | 0 mm | 2.24 m/s, 256° | 527 W/m² | - |
| 1777991471 | 17.78° C | 76% | 1004.3 hPa | 0 mm | 2.68 m/s, 246° | 548 W/m² | - |
| 1777991140 | 17.78° C | 76% | 1004.3 hPa | 0 mm | 3.13 m/s, 265° | 541 W/m² | - |
| 1777990843 | 17.78° C | 76% | 1004.6 hPa | 0 mm | 3.13 m/s, 247° | 580 W/m² | - |
| 1777990515 | 17.78° C | 76% | 1004.5 hPa | 0 mm | 3.13 m/s, 259° | 577 W/m² | - |
| 1777990212 | 17.78° C | 76% | 1004.5 hPa | 0 mm | 2.24 m/s, 248° | 490 W/m² | - |
| 1777989908 | 17.78° C | 77% | 1004.5 hPa | 0 mm | 2.24 m/s, 246° | 531 W/m² | - |
| 1777989589 | 17.22° C | 77% | 1004.6 hPa | 0 mm | 2.24 m/s, 254° | 529 W/m² | - |
| 1777989257 | 17.22° C | 78% | 1004.6 hPa | 0 mm | 2.24 m/s, 269° | 432 W/m² | - |
| 1777988930 | 17.22° C | 77% | 1004.6 hPa | 0 mm | 2.24 m/s, 255° | 475 W/m² | - |
| 1777988604 | 17.22° C | 77% | 1004.6 hPa | 0 mm | 2.24 m/s, 256° | 418 W/m² | - |
* Rain latest hour (hover to see other rain measurements)
** Current wind speed in m/s (hover to see current wind gust speed)